Terminal Aerodrome Forecast
Issued by NWS Sioux Falls, SD

Home | Current Version | Previous Version | Graphics & Text | Print | Product List | Glossary Off
Versions: 1 2 3 4 5 6 7 8 9 10 11 12 13 14 15 16 17 18 19

000
FTUS43 KFSD 241253 AAA
TAFHON
TAF AMD
KHON 241253Z 2413/2512 33019G30KT P6SM OVC018
     FM241500 33021G30KT P6SM SCT018
      TEMPO 2415/2417 BKN018
     FM242000 33017G28KT P6SM SCT020
     FM250100 32008KT P6SM SCT020 BKN200
     FM250500 24006KT P6SM SCT050 BKN200
     FM251000 20004KT 5SM BR BKN012=

USA.gov is the U.S. government's official web portal to all federal, state and local government web resources and services.